Wetbulb
67.16 68.50 68.61 69.43 71.23 72.62 73.57 74.32 74.85 73.80 73.32 74.09 73.77 73.67 73.85 74.01 74.00 74.22 74.09 72.99 73.13 72.28 71.71 71.58 72.08 71.80 70.03 70.37 70.43 69.89 69.63 69.69
60.91 67.92 68.88 69.41 70.59 71.76 73.19 74.12 74.34 74.31 73.89 73.49 73.46 73.33 73.52 72.94 73.27 73.99 73.12 72.34 72.34 72.33 71.22 71.41 71.86 70.97 70.53 70.23 69.45 70.00 70.08 70.20
58.83 65.24 70.05 70.55 70.12 71.54 72.75 73.75 73.96 73.40 73.84 73.39 73.43 73.23 73.42 73.38 73.13 73.87 72.62 71.57 71.67 72.09 71.95 71.26 70.93 70.68 70.29 69.64 69.11 69.04 69.46 70.39
57.79 62.30 67.50 70.43 71.16 71.49 72.53 72.89 74.20 73.18 73.87 74.12 73.53 73.71 73.72 73.69 73.42 73.38 72.81 72.32 72.07 71.48 71.74 71.21 70.61 70.37 69.80 69.45 69.25 69.48 69.90 70.33
57.64 60.64 67.25 70.74 71.75 72.43 72.40 73.22 73.78 73.85 74.70 74.51 73.96 73.63 73.61 73.35 73.32 73.89 72.97 72.86 72.73 72.07 71.15 70.63 70.48 70.76 70.78 70.13 70.38 70.45 70.17 70.97
59.85 60.30 66.58 70.64 72.27 72.37 72.99 72.99 73.22 74.30 74.70 74.53 74.09 73.80 73.61 73.51 73.49 73.28 72.81 72.85 73.15 72.40 71.16 70.83 71.13 70.70 70.05 69.96 70.13 69.96 70.61 71.67
57.43 59.64 60.75 67.11 70.88 72.47 72.67 73.36 72.99 73.85 74.17 74.04 74.30 74.97 73.70 73.20 72.42 71.84 72.85 73.26 72.96 72.33 71.32 71.57 72.14 70.72 69.75 69.58 69.90 70.33 71.35 71.73
56.38 57.82 60.94 62.27 65.77 70.29 72.28 72.65 73.70 73.63 73.09 73.59 73.16 73.31 73.50 72.75 71.01 71.52 72.31 73.64 73.34 72.41 71.89 71.56 71.43 69.76 69.45 69.35 70.61 71.56 70.94 70.52
55.28 56.17 57.89 60.18 61.38 65.21 70.26 71.15 72.48 72.40 71.33 70.83 70.41 70.14 71.89 72.36 72.64 73.16 73.08 72.51 73.39 73.93 72.46 72.10 71.52 70.82 70.37 69.84 69.81 70.33 69.89 69.76
54.60 55.43 56.17 58.20 60.99 62.24 65.70 70.69 72.04 71.95 71.57 71.84 71.02 70.83 70.98 71.70 72.44 72.93 73.33 72.88 72.51 72.39 73.02 72.09 71.31 69.91 70.64 70.48 70.36 69.57 70.79 70.39
54.07 55.18 56.16 59.41 59.84 61.92 63.57 68.40 71.57 72.19 72.54 72.16 71.50 71.50 71.02 69.95 70.40 70.84 71.47 71.94 72.32 72.90 72.13 72.15 71.63 70.64 69.25 70.25 70.51 70.74 68.69 68.78
52.81 53.92 55.43 57.07 60.75 62.44 62.63 66.14 70.40 70.90 71.86 71.04 71.00 69.39 68.53 69.59 70.16 70.68 71.05 71.59 71.58 71.77 71.84 71.61 72.34 71.25 71.15 70.46 70.89 71.33 70.11 69.45
52.75 54.46 55.57 56.90 58.40 61.80 63.74 65.81 68.68 70.82 71.27 71.99 70.51 70.91 70.81 71.27 71.19 71.70 72.04 71.84 72.02 71.54 72.08 72.02 72.28 72.46 73.10 71.89 71.18 70.47 69.49 67.70
53.54 54.36 54.87 54.89 56.91 59.66 62.98 65.49 68.41 70.56 70.91 71.65 71.91 71.14 70.91 70.19 70.90 70.75 71.25 71.61 71.71 72.25 72.49 72.93 72.60 72.38 72.11 70.60 68.13 65.03 65.68 64.76
52.59 53.33 54.17 55.24 55.38 57.34 60.78 63.90 67.30 70.32 71.01 71.28 71.38 72.14 71.12 71.02 71.18 70.99 71.25 70.65 71.02 72.17 72.39 71.73 71.86 72.73 71.54 68.87 68.31 65.60 65.24 64.33
52.96 53.65 54.20 54.91 54.46 55.44 59.16 62.08 65.14 68.00 70.17 71.13 71.40 71.74 70.64 70.59 70.71 70.25 70.50 70.32 70.75 72.13 71.72 71.47 71.65 71.74 71.71 70.90 68.49 67.39 64.95 64.04
52.31 53.76 54.56 55.43 55.91 54.54 57.55 60.36 63.23 64.96 66.98 67.75 67.14 66.57 66.91 66.38 68.03 69.05 68.95 70.17 69.79 70.30 70.60 70.74 70.93 71.24 71.78 71.91 71.41 69.49 68.58 65.98
52.34 53.02 53.98 54.88 56.01 57.12 57.81 60.05 61.72 62.51 64.38 64.35 64.34 64.80 65.29 65.80 66.02 66.07 66.55 66.46 66.14 66.39 66.69 67.70 67.95 68.56 69.20 70.22 69.75 70.20 68.90 69.82
50.02 52.16 53.80 54.69 54.84 56.06 57.61 58.29 59.84 60.71 62.03 62.58 62.29 62.25 62.77 63.29 63.59 63.93 63.93 64.24 63.77 63.81 64.87 65.74 65.36 66.03 67.34 68.12 68.02 67.58 67.34 67.76
49.09 50.02 51.40 53.45 54.95 55.33 56.94 57.52 58.33 58.95 59.29 59.94 60.60 61.60 61.67 61.85 61.88 62.25 62.49 62.17 62.55 62.73 62.99 63.14 63.55 64.43 66.40 66.03 65.08 65.13 65.24 65.00
MSLP
1006.64 1006.49 1006.57 1006.92 1007.62 1007.89 1008.31 1008.96 1009.18 1009.53 1009.84 1010.49 1010.77 1011.52 1011.75 1012.17 1012.58 1013.47 1013.86 1014.15 1014.30 1014.21 1014.48 1014.97 1015.31 1015.70 1015.60 1015.85 1015.92 1015.98 1016.12 1016.16
1005.78 1005.92 1006.16 1006.41 1007.06 1007.53 1008.08 1008.63 1009.15 1009.48 1009.69 1010.14 1010.37 1010.79 1011.51 1011.84 1012.21 1012.86 1013.46 1013.77 1014.31 1014.35 1014.27 1014.60 1015.16 1015.21 1015.37 1015.64 1015.66 1015.91 1015.93 1015.93
1005.16 1005.31 1005.70 1006.50 1006.38 1006.98 1007.56 1008.20 1008.69 1009.36 1009.69 1010.03 1010.28 1010.51 1010.98 1011.49 1011.93 1012.51 1013.10 1013.40 1013.91 1014.25 1014.31 1014.57 1014.77 1015.28 1015.45 1015.47 1015.40 1015.68 1015.82 1015.72
1004.75 1004.93 1005.15 1005.90 1005.88 1006.27 1007.02 1007.45 1008.03 1008.60 1009.15 1009.45 1010.05 1010.36 1010.61 1011.24 1011.50 1012.14 1012.81 1013.44 1013.66 1013.89 1014.34 1014.49 1014.63 1014.74 1015.26 1015.53 1015.60 1015.40 1015.55 1015.55
1004.28 1003.93 1004.42 1005.01 1005.10 1005.49 1006.44 1006.99 1007.66 1007.86 1008.43 1008.80 1009.43 1009.88 1010.40 1010.74 1011.21 1012.05 1012.24 1012.74 1013.32 1013.79 1013.73 1014.18 1014.39 1014.54 1014.54 1015.12 1015.33 1015.05 1015.16 1014.86
1004.35 1004.13 1004.13 1004.55 1005.17 1005.05 1005.52 1006.32 1006.64 1007.27 1007.52 1008.20 1008.86 1009.10 1009.44 1009.92 1010.39 1011.22 1012.26 1012.74 1012.80 1013.08 1013.34 1013.44 1013.82 1014.27 1014.18 1014.78 1014.76 1014.73 1014.57 1014.35
1004.21 1004.19 1004.16 1004.56 1004.80 1004.82 1005.13 1005.61 1005.91 1006.46 1007.08 1007.67 1008.69 1008.89 1009.21 1009.46 1009.64 1009.56 1010.61 1012.05 1012.84 1012.24 1012.90 1012.83 1013.22 1013.51 1013.79 1014.40 1014.38 1014.47 1014.04 1013.84
1003.70 1003.85 1003.78 1003.95 1004.64 1004.95 1004.95 1005.19 1005.41 1006.41 1006.85 1007.55 1008.25 1008.56 1008.84 1008.65 1009.15 1008.96 1009.51 1011.10 1012.68 1012.19 1012.03 1012.53 1012.77 1012.77 1013.44 1013.42 1014.11 1014.10 1013.92 1013.68
1003.58 1003.71 1003.67 1003.77 1004.13 1004.34 1004.70 1004.89 1005.27 1005.83 1006.39 1006.77 1007.48 1007.49 1008.19 1008.59 1008.78 1009.19 1010.02 1010.52 1010.90 1011.49 1011.93 1011.99 1012.36 1012.18 1012.18 1013.01 1013.39 1013.45 1013.87 1013.54
1003.34 1003.42 1003.50 1003.59 1003.51 1003.62 1003.59 1003.87 1004.56 1005.13 1005.32 1005.89 1006.51 1006.98 1007.60 1008.30 1008.71 1008.89 1009.60 1009.87 1009.98 1009.86 1010.76 1011.12 1011.94 1012.12 1011.77 1011.86 1012.21 1013.09 1012.55 1013.17
1003.06 1002.96 1003.10 1003.08 1003.04 1002.86 1002.98 1003.07 1003.49 1004.06 1004.64 1005.32 1006.22 1007.00 1007.56 1007.97 1008.13 1008.44 1008.57 1008.78 1009.24 1009.47 1009.67 1009.91 1010.75 1011.40 1011.48 1011.73 1011.60 1012.36 1012.11 1013.32
1002.88 1002.58 1002.37 1002.37 1002.26 1002.62 1002.69 1002.67 1003.13 1003.77 1004.24 1004.54 1004.90 1005.31 1005.68 1005.70 1006.28 1006.97 1007.50 1007.88 1008.32 1008.44 1009.09 1009.44 1009.91 1010.27 1010.75 1011.51 1011.20 1012.21 1012.66 1012.78
1002.36 1002.02 1001.67 1001.44 1001.60 1001.88 1002.01 1002.09 1002.57 1002.99 1003.40 1003.32 1004.16 1004.43 1004.82 1004.87 1005.74 1006.31 1006.65 1007.26 1007.59 1008.00 1008.50 1009.24 1009.50 1009.98 1010.04 1010.25 1011.36 1012.29 1012.40 1012.86
1001.94 1001.93 1001.75 1001.12 1001.03 1001.33 1001.41 1001.56 1001.63 1002.01 1002.49 1002.84 1003.20 1003.51 1004.03 1004.67 1004.77 1005.27 1005.73 1006.15 1006.69 1007.38 1007.93 1008.23 1008.67 1009.15 1009.51 1009.74 1010.62 1011.98 1013.16 1013.66
1002.33 1001.95 1001.47 1001.00 1000.48 1000.35 1000.72 1000.98 1001.02 1001.39 1001.80 1002.08 1002.40 1002.76 1003.39 1003.54 1004.03 1004.42 1004.83 1005.29 1005.64 1006.37 1007.07 1007.64 1007.93 1008.42 1009.13 1009.40 1009.34 1009.86 1011.20 1012.64
1002.71 1002.14 1001.73 1001.13 1000.44 1000.09 1000.16 1000.16 1000.24 1000.72 1001.12 1001.40 1001.97 1002.50 1002.99 1003.35 1003.88 1004.23 1004.65 1004.81 1005.24 1005.99 1006.53 1006.93 1007.20 1007.75 1008.11 1008.34 1008.99 1009.71 1010.51 1010.81
1003.24 1002.49 1001.80 1001.21 1000.62 1000.04 999.78 999.69 999.82 1000.28 1000.63 1001.27 1001.82 1002.17 1002.67 1003.07 1003.72 1004.20 1004.49 1005.01 1005.34 1005.88 1006.29 1006.69 1007.02 1007.26 1007.52 1008.04 1008.73 1009.33 1009.96 1010.86
1003.33 1002.78 1002.17 1001.15 1000.68 1000.23 999.90 999.54 999.53 999.95 1000.52 1000.96 1001.45 1001.93 1002.59 1003.01 1003.68 1004.07 1004.51 1005.00 1005.48 1005.89 1006.18 1006.41 1006.75 1007.05 1007.36 1007.85 1008.21 1008.65 1009.22 1009.66
1003.88 1002.98 1002.16 1001.42 1000.82 1000.14 999.97 999.76 999.82 1000.01 1000.07 1000.73 1001.26 1001.77 1002.38 1003.06 1003.35 1003.90 1004.38 1004.95 1005.38 1005.73 1005.96 1006.27 1006.59 1006.98 1007.35 1007.72 1007.98 1008.29 1008.56 1008.86
1004.29 1003.31 1002.39 1001.56 1000.90 1000.46 999.93 1000.01 999.95 1000.00 1000.42 1000.84 1001.24 1001.84 1002.03 1002.62 1003.05 1003.67 1004.23 1004.64 1005.19 1005.48 1005.86 1006.08 1006.35 1006.67 1007.09 1007.27 1007.41 1007.61 1007.84 1008.07
Wind_Speed
13 14 14 15 13 14 16 16 15 16 13 11 8 7 8 9 14 11 9 7 7 7 6 6 7 8 6 7 6 5 4 4
13 16 17 16 18 17 16 17 15 14 10 10 11 10 9 9 10 13 9 7 7 7 6 7 6 5 6 5 3 4 5 5
14 15 14 14 17 18 18 17 16 12 14 10 10 11 10 11 10 12 8 8 7 7 6 6 5 4 4 5 5 4 4 5
16 12 14 16 15 18 18 19 16 15 15 15 11 10 11 10 10 10 12 8 7 8 6 6 5 5 4 4 4 3 3 4
18 16 15 17 18 16 20 20 18 18 18 15 13 11 11 10 9 10 12 12 11 10 8 7 7 7 8 6 6 4 4 4
11 15 14 14 13 17 19 17 19 18 17 13 11 12 12 12 11 8 10 12 12 11 9 9 8 6 6 6 6 5 5 4
11 12 13 13 16 15 17 18 20 20 16 13 13 13 13 11 9 11 14 13 14 12 9 8 9 7 6 7 6 6 5 4
13 13 11 11 11 12 13 14 15 14 12 11 9 8 12 11 10 6 10 13 16 10 10 10 10 8 9 7 8 7 5 3
13 11 12 12 10 12 14 15 14 12 11 12 11 13 11 9 11 14 15 13 16 14 10 10 11 11 9 10 9 8 8 4
13 10 10 12 13 14 15 17 16 15 12 11 9 11 9 9 9 12 16 17 15 12 14 11 12 10 10 11 10 7 5 5
13 13 7 9 14 14 14 16 17 17 16 10 7 8 6 10 12 11 13 14 14 14 11 8 11 10 9 8 10 10 7 5
12 12 11 9 12 13 15 14 16 16 17 13 17 13 11 12 12 11 12 14 14 13 11 10 9 8 9 9 5 6 2 4
14 12 13 12 9 12 12 14 16 16 18 16 14 14 11 7 10 13 12 13 14 14 13 12 11 9 9 9 7 5 4 1
13 13 13 15 11 10 11 15 17 18 19 20 19 18 14 11 10 10 10 10 11 14 14 12 12 10 10 9 7 3 5 9
11 13 13 15 16 13 11 14 17 18 20 19 20 18 17 16 13 11 11 9 8 11 12 12 11 11 12 11 7 10 9 13
9 12 13 15 17 16 14 16 17 17 17 18 16 16 11 10 11 8 8 8 8 6 7 9 9 10 10 10 9 9 7 5
13 11 7 11 13 15 16 17 16 16 16 13 13 12 12 11 10 9 7 7 6 7 7 9 9 9 10 10 9 12 14 17
15 13 14 8 8 11 11 15 17 15 13 11 11 12 11 11 10 10 9 6 5 6 7 7 8 8 8 10 8 9 8 7
15 15 14 11 8 7 9 11 14 15 14 13 12 12 12 11 11 10 9 8 7 7 7 7 7 7 8 8 8 9 9 7
13 14 16 15 12 8 5 7 11 9 8 9 11 12 13 12 11 10 10 9 8 8 8 7 7 7 8 8 8 7 6 5
Wind_Direction
228 211 205 200 195 189 190 186 184 184 188 185 185 187 181 184 186 193 205 202 195 189 186 187 195 187 196 194 198 220 233 253
247 230 209 199 193 196 193 192 190 188 192 190 185 185 189 189 191 192 192 197 200 203 196 188 195 195 191 200 209 234 244 250
262 243 238 216 195 196 197 193 192 190 197 195 196 193 188 192 190 195 192 205 203 209 203 204 190 201 212 211 202 225 251 254
257 244 226 218 206 200 197 198 192 183 200 198 197 194 190 191 191 193 192 207 205 203 209 211 204 187 209 238 243 214 246 271
265 241 222 218 208 194 200 198 191 189 197 197 196 198 196 194 197 201 199 203 206 207 203 206 219 207 190 212 223 213 234 241
270 268 241 224 220 199 196 198 197 196 198 196 198 196 197 192 189 196 216 224 212 203 208 211 203 210 207 217 214 220 231 226
272 253 243 233 219 210 199 199 201 201 198 193 201 199 198 192 195 182 188 217 226 204 213 212 198 213 213 216 222 224 222 221
280 266 253 223 217 224 213 204 204 204 195 189 196 198 209 214 214 198 194 206 227 212 211 206 208 197 218 199 223 213 232 225
285 279 268 256 227 206 216 202 202 190 190 189 189 199 200 200 200 207 210 211 208 213 226 216 208 214 215 202 213 210 224 183
286 273 250 244 241 223 211 209 198 199 195 192 194 199 202 201 199 201 204 206 207 189 207 212 227 231 208 198 193 221 206 190
284 297 272 241 243 233 221 214 206 200 200 188 184 170 174 196 203 205 206 203 205 208 212 212 204 213 228 218 191 216 203 201
278 284 283 249 240 239 233 223 212 204 191 186 187 196 196 205 204 206 204 201 204 200 202 199 206 210 208 206 180 202 223 221
273 276 278 281 257 233 229 218 213 203 196 193 194 200 207 189 199 200 202 200 205 207 203 202 203 202 187 151 145 181 138 336
280 285 292 283 276 245 219 211 208 199 196 193 193 193 192 193 194 200 203 204 199 204 202 200 206 206 198 176 154 169 297 313
306 305 306 297 284 256 230 213 209 199 199 197 197 197 194 193 192 201 198 207 207 203 193 195 204 200 200 206 194 190 205 239
343 335 316 302 283 267 234 216 215 199 198 198 196 197 195 196 198 198 206 216 219 202 186 190 201 207 205 194 191 198 189 240
329 338 320 311 298 266 245 231 217 203 194 186 178 173 172 171 174 182 184 194 201 195 188 191 200 203 188 181 194 193 193 219
325 320 331 331 299 281 252 239 219 196 182 176 171 168 169 161 163 172 176 173 178 172 177 185 186 191 184 186 187 194 201 211
344 335 328 327 321 269 243 217 207 189 176 178 172 171 168 165 165 167 169 167 175 185 184 180 185 187 179 178 179 178 191 194
333 341 349 350 348 357 213 204 196 173 178 185 184 179 168 169 171 170 170 175 181 182 184 188 187 184 179 183 178 171 180 192